Regional Weather Roundup
Issued by NWS Sterling, VA

Home | Current Version | Previous Version | Graphics & Text | Print | Product List | Glossary On
Versions: 1 2 3 4 5 6 7 8 9 10 11 12 13 14 15 16 17 18 19 20 21 22 23 24 25 26 27 28 29 30 31 32 33 34 35 36 37 38 39 40 41 42 43 44 45 46 47 48 49 50
000
ASUS41 KLWX 292310
RWRLWX

REGIONAL WEATHER ROUNDUP
NATIONAL WEATHER SERVICE BALTIMORE MD/WASHINGTON DC
700 PM EDT SAT AUG 29 2015

Note: "FAIR" indicates few or no clouds below 12,000 feet
with no significant weather and/or obstructions to visibility.
 TC=TEMPERATURE CELSIUS

 * =Non NWS site. Station does not report precipitation (e.g. rain,
    snow, etc.), thunder, or fog.

DCZ001-MDZ009-015-VAZ040>042-051-053>054-300000-
WASHINGTON METRO

CITY           SKY/WX    TMP DP  RH WIND       PRES   REMARKS
WASHINGTON NAT MOCLDY    83  65  54 S10       30.10S
DULLES         MOCLDY    82  63  52 S8        30.10S
ANDREWS AFB    MOCLDY    81  64  55 S12       30.10S
FT BELVOIR     CLOUDY    81  66  60 SE6       30.09F
QUANTICO       CLOUDY    80  65  59 SW5       30.10S
LEESBURG*      PTCLDY    86  68  54 S6        30.10S
MANASSAS*      PTCLDY    81  64  57 S5        30.10S
GAITHERSBURG*  CLEAR     84  61  45 S5        30.13F

$$

MDZ006>007-011-014-300000-
BALTIMORE METRO

CITY           SKY/WX    TMP DP  RH WIND       PRES   REMARKS
BWI AIRPORT    MOCLDY    79  66  64 S5        30.09S
MD SCIENCE CTR   N/A     81  64  56 MISG      30.10S
MARTIN STATE   CLEAR     81  70  69 S10       30.11F
ANNAPOLIS      MOCLDY    79  63  57 S14G20    30.10S
FORT MEADE*    MOCLDY    77  64  65 SE7       30.12S

$$

MDZ012-015-019>023-300000-
MARYLAND EASTERN SHORE

CITY           SKY/WX    TMP DP  RH WIND       PRES   REMARKS
OCEAN CITY     MOCLDY    76  60  57 S6        30.14F
SALISBURY      MOCLDY    75  62  64 S5        30.13F
BAY BRIDGE AP*   N/A     81  61  50 S8        30.11S
CAMBRIDGE*     MOCLDY    79  63  57 S3        30.12S
EASTON*        PTCLDY    81  63  54 S7        30.15F

$$

MDZ017>025-300000-
SOUTHERN MARYLAND

CITY           SKY/WX    TMP DP  RH WIND       PRES   REMARKS
PATUXENT RIVER MOCLDY    77  63  61 S7        30.12S
ST INIGOES     CLOUDY    78  64  61 S7        30.11F
LEONARDTOWN*   CLOUDY    77  61  57 CALM      30.14S

$$

MDZ003>005-300000-
NORTH CENTRAL MARYLAND

CITY           SKY/WX    TMP DP  RH WIND       PRES   REMARKS
FREDERICK*     NOT AVBL
HAGERSTOWN APT CLEAR     85  59  41 S8        30.09S
WESTMINSTER*   CLEAR     84  59  42 CALM      30.11S

$$

MDZ501>502-300000-
WESTERN MARYLAND

CITY           SKY/WX    TMP DP  RH WIND       PRES   REMARKS
OAKLAND*       PTCLDY    72  57  60 SW3       30.21S
CUMBERLAND*    PTCLDY    86  59  39 CALM      30.12S

$$

VAZ025>031-300000-
SHENANDOAH VALLEY

CITY           SKY/WX    TMP DP  RH WIND       PRES   REMARKS
WINCHESTER*    PTCLDY    82  63  51 SE6       30.10S
FRONT ROYAL*   FAIR      81  64  57 CALM      30.08F
LURAY*         CLOUDY    81  61  50 S5        30.11R
NEW MARKET*    FAIR      81  64  55 CALM      30.08S
STAUNTON*      CLOUDY    82  62  50 S6        30.14S
WAYNESBORO*    FAIR      79  62  55 S6        30.15S

$$

WVZ021-048>050-054>055-300000-
EASTERN WEST VIRGINIA PANHANDLE

CITY           SKY/WX    TMP DP  RH WIND       PRES   REMARKS
MARTINSBURG    PTCLDY    81  64  56 SE6       30.09F
PETERSBURG*    MOCLDY    80  65  58 CALM      30.10S

$$

VAZ036>039-050-300000-
CENTRAL FOOTHILLS

CITY           SKY/WX    TMP DP  RH WIND       PRES   REMARKS
CHARLOTTESVILL CLOUDY    80  63  55 S9        30.11S
CULPEPER*      MOCLDY    80  64  58 S5        30.10S
ORANGE*        CLOUDY    81  63  54 CALM      30.12S
GORDONSVILLE*  FAIR      78  67  70 CALM      30.10S
WARRENTON*     MOCLDY    81  67  63 E5        30.10S

$$

VAZ055>057-300000-
NORTH AND CENTRAL PIEDMONT

CITY           SKY/WX    TMP DP  RH WIND       PRES   REMARKS
FREDERICKSBRG* CLOUDY    82  66  58 S5        30.09S
STAFFORD*      CLOUDY    79  60  52 S3        30.14S

$$

NCZ024-NYZ072-PAZ021-071-VAZ022-071-300000-
OTHER REGIONAL OBSERVATIONS

CITY           SKY/WX    TMP DP  RH WIND       PRES   REMARKS
NEW YORK CITY  CLEAR     79  58  48 CALM      30.13S
PHILADELPHIA   MOCLDY    84  61  45 SW9       30.10F
PITTSBURGH     MOSUNNY   82  60  47 S3        30.08F
ROANOKE        MOCLDY    80  60  50 S7        30.16S
RICHMOND       CLOUDY    81  63  54 SE9       30.11F
RALEIGH        CLOUDY    82  58  43 SE5       30.12F

$$

ANZ530>537-300000-
MARINE OBSERVATIONS

STATION/POSITION TIME  TEMP    WIND        PRES
                       AIR SEA DIR/SP/G
                 (UTC) (F)     (DEG/KT/KT) (MB)
THOMAS PT LIGHT  2200   79 79  170/ 18     1019.9

$$




USA.gov is the U.S. government's official web portal to all federal, state and local government web resources and services.